User: anonymous   Login
Location: Corralito
(10.2667°N, 66.9500°W)
Time: 14:26:25
(UTC+00:00)
Language:

FENGYUN 1C DEB - Orbit

View from above orbital plane
View from above orbital plane
View from above satellite
View from above satellite

Ground track
Ground track

The orbit data is extracted from the following two-line orbital elements,

1 37012U 99025ECU 24193.49199850  .00003732  00000-0  24179-2 0  9992
2 37012  98.5915  80.7396 0204067 345.0973  14.4232 13.93610760832482
Epoch (UTC): 11 July 2024 11:48:28
Eccentricity: 0.0204067
inclination: 98.5915°
perigee height: 767 km
apogee height: 1065 km
right ascension of ascending node: 80.7396°
argument of perigee: 345.0973°
revolutions per day: 13.93610760
mean anomaly at epoch: 14.4232°
orbit number at epoch: 83248

The dashed part of the orbit path shows where the satellite is in the earth's shadow,  

DLR